Погода в Мариуполе

Погода в Мариуполе : погода сейчас, прогноз погоды и архив. Всё, что Вы хотите узнать о погоде в Мариуполе!

Поиск расширенной информации на нашем сайте:

Другие новости

Новости СМИ2

Главная страница сайта

Новости сайта

02.10.2013

Напоминаем, что на нашем новом сайте вы можете получить высокодетализированные прогнозы погоды по пунктам России, СНГ и мира (включающие важные для авиации метеовеличины, такие как направление и скорость ветра, видимость, явления погоды, количество и форма облачности, нижняя и верхняя граница облачности), а также ознакомиться с разнообразными материалами по авиационной метеорологии и подборкой полезных ссылок на эту тему.

Сайт Метеоцентр.Азия посвящён разработке технологий оптимизации авиаметеорологического обслуживания, включая проектирование и перспективное создание нескольких автоматизированных авиаметеорологических систем:
- система выпуска высокодетальных прогностических карт явлений погоды для нижнего воздушного пространства по России и ближнему зарубежью;
- система верификации прогнозов TAF (выпускаемых синоптиками официальных АМСГ РФ и ближнего зарубежья) и AUTOTAF (выпускаемых сайтом Метеоцентр.Азия) - выявление ошибок, онлайн-сопоставление с фактической погодой METAR, автоматическое внесение коррективов в прогнозы при резком отклонении фактической погоды от прогноза, подсчёт оправдываемости прогнозов по элементам и в целом;
- система обработки, анализа и отображения авиаметеорологической информации для применения провайдерами метеорологической информации.

Рекомендуем: Деревянные окна

Погода в Мариуполе - сегодня

Время (UTC), дата Ветер
(°,м/с) 
Видим.   Явления Облачность Т
(°С)
Тd
(°С)
f(%) Тe
(°С)
Pmin
(гПа)
dP
(гПа)
Po
(мм)
O2
(г/м3)
Тmin Tmax R s Состояние
почвы
15 30.11.16 340 (С) 4000 м  дымка  8/3 600 м средняя 
[Sc|Ac As]
-3.3 -5.7 83 -7  1021.8  1.1  760  310           
18 30.11.16 340 (С) 10 км    4/0 верхняя 
[Ci fib]
-4.5 -6.8 84 -9  1021.9  760  312    -0.6  0.4     
21 30.11.16 340 (С) 10 км    3/0 верхняя 
[Cs]
-5.8 -7.3 89 -9  1021.9  760  314           
00 01.12.16 320 (СЗ) 10 км    10/0 средняя 
[Ac und]
-6.2 -7.7 89 -9  1021.3  -0.6  759  314           
03 01.12.16 320 (СЗ) 4000 м    10/0 средняя 
[Ac und]
-6.4 -7.6 91 -9  1020.4  -0.9  759  314           
06 01.12.16 340 (С) 4000 м  дымка  ясно 
-8.2 -10.1 86 -10  1020.1  -0.4  758  316  -9      сухой снег
50-90% 
09 01.12.16 160 (Ю) 10 км    3/0 верхняя 
[Ci fib]
-3.1 -7.7 70 -3  1018.9  -1  758  310           
12 01.12.16 180 (Ю) 10 км    6/3 600 м верхняя 
[Sc|Cs]
-1.1 -6.5 67 -3  1016.9  -1.9  756  307           
15 01.12.16 140 (ЮВ) 4000 м  дымка  8/0 средняя 
[As trans]
-2.6 -4.9 84 -4  1016.6  -0.4  756  308           
18 01.12.16 160 (Ю) 20000 м    8/8 800 м 
[Sc]
-1.8 -4.2 84 -5  1015  -1.5  755  307    -1.1       
21 01.12.16 160 (Ю) 20000 м    8/8 840 м 
[Sc]
-1.6 -6.5 69 -5  1013.8  -1.2  754  306           
00 02.12.16 140 (ЮВ) 20000 м    10/0 верхняя 
[Cs]
-1.8 -6 73 -5  1011.8  -2  752  306           
03 02.12.16 140 (ЮВ) 20000 м    10/8 630 м верхняя 
[Sc|Cs]
-1.9 -5.7 75 -5  1010.5  -1.3  751  305           
06 02.12.16 140 (ЮВ) 20000 м    10/10 600 м кучево-дожд. 
[Cb cap]
-3.5 -5.3 87 -6  1009.2  -1.3  750  307  -4      <0.5  сухой снег
10-40% 
09 02.12.16 140 (ЮВ) 10 км    10/10 420 м 
[Sc]
-3.4 -4.5 92 -6  1008.7  -0.5  750  306           
12 02.12.16 140 (ЮВ) 4000 м  дымка  10/10 360 м 
[St]
-3.6 -4.4 94 -7  1007.1  -1.6  749  306           
15 02.12.16 110 (В) 10 км    10/10 500 м 
[Sc]
-2.6 -3.6 93 -7  1006.6  -0.5  748  305           
18 02.12.16 110 (В) 4000 м  дымка  10/10 330 м 
[Sc]
-1.4 -2.8 90 -6  1004.4  -2.1  747  303    -1.4       
21 02.12.16 110 (В) 4000 м  дымка  10/10 330 м 
[Sc]
-0.3 -2.1 88 -5  1002.4  -2  745  301           
00 03.12.16 110 (В) 10  4000 м  слаб. ливневой дождь со снегом  10/10 300 м кучево-дожд. 
[Cb cap]
+0.5 +0.2 98 -4  999.8  -2.5  743  299         
03 03.12.16 110 (В) 4000 м  слаб. дождь{ливн. осадки}  10/9 300 м средняя 
[Frnb|As op]
+0.6 +0.1 96 -4  997.3  -2.5  742  298           
06 03.12.16 250 (З) 10 км  {дождь}  10/10 300 м 
[Sc]
+1.9 +0.3 89 -2  996.8  -0.4  741  297  -1.6       
09 03.12.16 250 (З) 10 км    10/10 570 м 
[Sc]
+1.4 -0.5 87 -2  999.1  2.2  743  298           
12 03.12.16 270 (З) 10  10 км    10/10 800 м 
[Sc]
+0.3 -4.4 71 -4  1003.3  4.1  746  301           
15 03.12.16 270 (З) 10  20000 м  в посл. час крупа{ливн. осадки}  9/9 600 м 
[Sc]
-0.6 -4 78 -6  1006.9  3.6  749  303           
Время (UTC), дата Ветер
(°,м/с) 
Видим.   Явления Облачность Т
(°С)
Тd
(°С)
f(%) Тe
(°С)
Pmin
(гПа)
dP
(гПа)
Po
(мм)
O2
(г/м3)
Тmin Tmax R s Состояние
почвы

Для получения пояснительной информации подведите курсор к названию столбца.

ПОГОДА в Мариуполе - архив

Всё, что Вы хотите узнать о погоде в Мариуполе - удобно и подробно!

Выберите нужную дату (начиная с 1 января 2015* года) и нажмите кнопку "Найти".
Будут отображены архивные сводки погоды по пункту Мариуполь, начиная с указанной даты.


Отображать данные в формате CSV (для использования в таблицах Excel)


Внимание! Наш архив погоды предназначен исключительно для личного некоммерческого использования в познавательных целях. Если Вам необходимы официальные справки о состоянии погоды (для производственных, юридических, коммерческих и т.п. целей), обращайтесь в органы Росгидромета.

*Примечание: данная дата относится к архиву по метеостанциям СССР (Россия, СНГ, Балтия).
Архив по метеостанциям Зарубежной Европы и Азии (кроме Китая) хранится 10 дней, по другим регионам земного шара (Китай, Африка, Америка, Австралия, Океания) - 1 день.

Мариуполь - район местоположения метеостанции


Название, широта, долгота, высота метеостанции:
Мариуполь (город) 47°ш. 37.5°д. 70 м над ур. моря [Украина]

Дополнительная информация

В oтличие oт бoльшинства пoгoдных сайтoв мы публикуем пoдрoбную метеoинфoрмацию в детальнoм прoфессиoнальнoм фoрмате.

Характеристики температуры и влажнoсти вoздуха измеряются на высoте 2 м в тени вдали oт зданий и деревьев.
Скoрoсть ветра измеряется на высoте 10 м (на урoвне рoста челoвека скoрoсть ветра ниже в 1.5-2 раза). Если метеoстанция нахoдится в гoрoде или в лесу, тo скoрoсть ветра занижена на 2-4 м/с пo сравнению с oткрытым местoм. Скoрoсть ветра над акватoриями крупных рек и oзёр, а также на вершинах хoлмoв на 2-5 м/с выше, чем в oбычных услoвиях.
Атмoсфернoе давление в разных тoчках местнoсти мoжет значительнo oтличаться oт давления на метеoстанции, в зависимoсти oт услoвий рельефа (при пoдъёме на 10 м давление пoнижается примернo на 1 мм рт.ст.).